• In Österreich
  • Länderverzeichnis
  • Für 7 Tage
  • Wassertemperatur
  • Satellitenkarten
  • Wetterkarte
  • News
  • Widgets
  • user-avatar
    Anmelden

    Stündliche Wetter San Juan

    Heute, 21 Mai, Montag

    Zeit Temperatur Niederschläge Wind Luftdruck Luftfeuchtigkeit
    00:00 +13°C° 0 mm 4 m/S 706 mmHg 45%
    01:00 +12°C° 0 mm 5 m/S 706 mmHg 55%
    02:00 +12°C° 0 mm 5 m/S 707 mmHg 60%
    03:00 +11°C° 0 mm 4 m/S 707 mmHg 64%
    04:00 +10°C° 0 mm 4 m/S 707 mmHg 68%
    05:00 +10°C° 0 mm 3 m/S 707 mmHg 69%
    06:00 +10°C° 0 mm 3 m/S 708 mmHg 70%
    07:00 +10°C° 0 mm 3 m/S 708 mmHg 71%
    08:00 +11°C° 0 mm 3 m/S 708 mmHg 64%
    09:00 +13°C° 0 mm 3 m/S 708 mmHg 58%
    10:00 +15°C° 0 mm 2 m/S 708 mmHg 51%
    11:00 +16°C° 0 mm 2 m/S 708 mmHg 48%
    12:00 +17°C° 0 mm 2 m/S 707 mmHg 45%
    13:00 +18°C° 0 mm 2 m/S 707 mmHg 42%
    14:00 +18°C° 0 mm 2 m/S 707 mmHg 43%
    15:00 +17°C° 0 mm 3 m/S 707 mmHg 44%
    16:00 +17°C° 0 mm 3 m/S 706 mmHg 45%
    17:00 +16°C° 0 mm 2 m/S 707 mmHg 49%
    18:00 +15°C° 0 mm 2 m/S 707 mmHg 54%
    19:00 +14°C° 0 mm 2 m/S 707 mmHg 58%
    20:00 +14°C° 0 mm 2 m/S 708 mmHg 59%
    21:00 +14°C° 0 mm 1 m/S 708 mmHg 60%
    22:00 +13°C° 0 mm 1 m/S 708 mmHg 61%
    23:00 +13°C° 0 mm 1 m/S 708 mmHg 62%

    Morgen, 22 Mai, Dienstag

    Zeit Temperatur Niederschläge Wind Luftdruck Luftfeuchtigkeit
    00:00 +13°C° 0 mm 1 m/S 708 mmHg 63%
    01:00 +12°C° 0 mm 2 m/S 708 mmHg 64%
    02:00 +12°C° 0 mm 2 m/S 708 mmHg 65%
    03:00 +12°C° 0 mm 2 m/S 708 mmHg 67%
    04:00 +10°C° 0 mm 2 m/S 708 mmHg 68%
    05:00 +11°C° 0 mm 1 m/S 708 mmHg 67%
    06:00 +11°C° 0 mm 1 m/S 709 mmHg 66%
    07:00 +12°C° 0 mm 1 m/S 709 mmHg 65%
    08:00 +13°C° 0 mm 1 m/S 709 mmHg 58%
    09:00 +15°C° 0 mm 1 m/S 709 mmHg 51%
    10:00 +18°C° 0 mm 1 m/S 710 mmHg 44%
    11:00 +18°C° 0 mm 2 m/S 709 mmHg 41%
    12:00 +19°C° 0 mm 2 m/S 708 mmHg 38%
    13:00 +20°C° 0 mm 2 m/S 708 mmHg 35%
    14:00 +20°C° 0 mm 2 m/S 708 mmHg 36%
    15:00 +20°C° 0 mm 2 m/S 707 mmHg 37%
    16:00 +20°C° 0 mm 2 m/S 707 mmHg 38%
    17:00 +20°C° 0 mm 1 m/S 707 mmHg 42%
    18:00 +18°C° 0 mm 1 m/S 708 mmHg 46%
    19:00 +16°C° 0 mm 1 m/S 708 mmHg 50%
    20:00 +16°C° 0 mm 1 m/S 708 mmHg 52%
    21:00 +15°C° 0 mm 1 m/S 708 mmHg 54%
    22:00 +14°C° 0 mm 1 m/S 708 mmHg 57%
    23:00 +14°C° 0 mm 1 m/S 708 mmHg 58%

    übermorgen, 23 Mai, Mittwoch

    Zeit Temperatur Niederschläge Wind Luftdruck Luftfeuchtigkeit
    00:00 +14°C° 0 mm 1 m/S 708 mmHg 59%
    01:00 +13°C° 0 mm 1 m/S 707 mmHg 61%
    02:00 +13°C° 0 mm 1 m/S 707 mmHg 63%
    03:00 +13°C° 0 mm 1 m/S 707 mmHg 65%
    04:00 +12°C° 0 mm 1 m/S 707 mmHg 66%
    05:00 +13°C° 0 mm 1 m/S 708 mmHg 66%
    06:00 +13°C° 0 mm 1 m/S 708 mmHg 66%
    07:00 +13°C° 0 mm 1 m/S 709 mmHg 65%
    08:00 +15°C° 0 mm 1 m/S 709 mmHg 58%
    09:00 +18°C° 0 mm 1 m/S 710 mmHg 50%
    10:00 +20°C° 0 mm 1 m/S 710 mmHg 42%
    11:00 +21°C° 0 mm 1 m/S 710 mmHg 38%
    12:00 +22°C° 0 mm 1 m/S 709 mmHg 34%
    13:00 +23°C° 0 mm 1 m/S 709 mmHg 30%
    14:00 +23°C° 0 mm 2 m/S 709 mmHg 31%
    15:00 +23°C° 0 mm 2 m/S 709 mmHg 31%
    16:00 +23°C° 0 mm 2 m/S 709 mmHg 32%
    17:00 +20°C° 0 mm 2 m/S 709 mmHg 37%
    18:00 +19°C° 0 mm 2 m/S 710 mmHg 42%
    19:00 +18°C° 0 mm 2 m/S 710 mmHg 47%
    20:00 +18°C° 0 mm 1 m/S 710 mmHg 51%
    21:00 +16°C° 0 mm 1 m/S 711 mmHg 54%
    22:00 +15°C° 0 mm 1 m/S 711 mmHg 57%
    23:00 +15°C° 0 mm 1 m/S 710 mmHg 58%

    24 Mai, Donnerstag

    Zeit Temperatur Niederschläge Wind Luftdruck Luftfeuchtigkeit
    00:00 +15°C° 0 mm 1 m/S 710 mmHg 58%
    01:00 +14°C° 0 mm 1 m/S 710 mmHg 59%
    02:00 +14°C° 0 mm 1 m/S 709 mmHg 58%
    03:00 +14°C° 0 mm 2 m/S 709 mmHg 58%
    04:00 +14°C° 0 mm 2 m/S 709 mmHg 57%
    05:00 +14°C° 0 mm 2 m/S 709 mmHg 56%
    06:00 +14°C° 0 mm 2 m/S 709 mmHg 55%
    07:00 +14°C° 0 mm 2 m/S 709 mmHg 54%
    08:00 +17°C° 0 mm 2 m/S 709 mmHg 46%
    09:00 +19°C° 0 mm 2 m/S 709 mmHg 39%
    10:00 +21°C° 0 mm 3 m/S 709 mmHg 31%
    11:00 +22°C° 0 mm 3 m/S 709 mmHg 28%
    12:00 +24°C° 0 mm 3 m/S 708 mmHg 25%
    13:00 +25°C° 0 mm 2 m/S 707 mmHg 22%
    14:00 +25°C° 0 mm 2 m/S 707 mmHg 23%
    15:00 +24°C° 0 mm 2 m/S 707 mmHg 24%
    16:00 +24°C° 0 mm 2 m/S 707 mmHg 26%
    17:00 +21°C° 0 mm 2 m/S 707 mmHg 31%
    18:00 +21°C° 0 mm 1 m/S 707 mmHg 37%
    19:00 +19°C° 0 mm 1 m/S 707 mmHg 42%
    20:00 +18°C° 0 mm 1 m/S 707 mmHg 44%
    21:00 +18°C° 0 mm 1 m/S 708 mmHg 45%
    22:00 +16°C° 0 mm 1 m/S 708 mmHg 47%
    23:00 +16°C° 0 mm 1 m/S 707 mmHg 47%

    25 Mai, Freitag

    Zeit Temperatur Niederschläge Wind Luftdruck Luftfeuchtigkeit
    00:00 +16°C° 0 mm 1 m/S 707 mmHg 47%
    01:00 +15°C° 0 mm 1 m/S 707 mmHg 47%
    02:00 +15°C° 0 mm 1 m/S 707 mmHg 49%
    03:00 +14°C° 0 mm 1 m/S 706 mmHg 51%
    04:00 +14°C° 0 mm 1 m/S 706 mmHg 53%
    05:00 +14°C° 0 mm 1 m/S 706 mmHg 52%
    06:00 +14°C° 0 mm 1 m/S 707 mmHg 52%
    07:00 +14°C° 0 mm 1 m/S 707 mmHg 52%
    08:00 +18°C° 0 mm 1 m/S 707 mmHg 45%
    09:00 +20°C° 0 mm 1 m/S 707 mmHg 38%
    10:00 +23°C° 0 mm 1 m/S 708 mmHg 31%
    11:00 +24°C° 0 mm 2 m/S 707 mmHg 28%
    12:00 +25°C° 0 mm 2 m/S 706 mmHg 25%
    13:00 +26°C° 0 mm 2 m/S 705 mmHg 21%
    14:00 +26°C° 0 mm 2 m/S 705 mmHg 21%
    15:00 +26°C° 0 mm 2 m/S 705 mmHg 21%
    16:00 +25°C° 0 mm 1 m/S 704 mmHg 21%
    17:00 +24°C° 0 mm 1 m/S 705 mmHg 24%
    18:00 +22°C° 0 mm 1 m/S 705 mmHg 27%
    19:00 +20°C° 0 mm 1 m/S 705 mmHg 30%
    20:00 +19°C° 0 mm 2 m/S 705 mmHg 29%
    21:00 +19°C° 0 mm 2 m/S 704 mmHg 28%
    22:00 +19°C° 0 mm 3 m/S 704 mmHg 27%
    23:00 +18°C° 0 mm 3 m/S 704 mmHg 27%

    26 Mai, Samstag

    Zeit Temperatur Niederschläge Wind Luftdruck Luftfeuchtigkeit
    00:00 +18°C° 0 mm 3 m/S 703 mmHg 26%
    01:00 +18°C° 0 mm 3 m/S 703 mmHg 26%
    02:00 +17°C° 0 mm 3 m/S 703 mmHg 26%
    03:00 +17°C° 0 mm 3 m/S 703 mmHg 25%
    04:00 +17°C° 0 mm 3 m/S 702 mmHg 25%
    05:00 +17°C° 0 mm 3 m/S 703 mmHg 25%
    06:00 +17°C° 0 mm 3 m/S 703 mmHg 25%
    07:00 +17°C° 0 mm 2 m/S 703 mmHg 24%
    08:00 +20°C° 0 mm 2 m/S 703 mmHg 21%
    09:00 +23°C° 0 mm 2 m/S 703 mmHg 18%
    10:00 +26°C° 0 mm 2 m/S 703 mmHg 14%
    11:00 +27°C° 0 mm 2 m/S 703 mmHg 13%
    12:00 +28°C° 0 mm 2 m/S 702 mmHg 12%
    13:00 +29°C° 0 mm 2 m/S 701 mmHg 10%
    14:00 +28°C° 0 mm 2 m/S 701 mmHg 11%
    15:00 +27°C° 0 mm 1 m/S 701 mmHg 12%
    16:00 +26°C° 0 mm 1 m/S 701 mmHg 13%
    17:00 +25°C° 0 mm 1 m/S 701 mmHg 16%
    18:00 +23°C° 0 mm 2 m/S 702 mmHg 19%
    19:00 +20°C° 0 mm 2 m/S 703 mmHg 23%
    20:00 +19°C° 0 mm 2 m/S 703 mmHg 26%
    21:00 +18°C° 0 mm 2 m/S 703 mmHg 29%
    22:00 +18°C° 0 mm 2 m/S 704 mmHg 32%
    23:00 +17°C° 0 mm 2 m/S 704 mmHg 35%
    Mehr zeigen